Weather History for Cartersville, GA

Change the Weather History Date:

Saturday, February 2, 2013

  Actual Average Record
Temperature  
Mean Temperature 34 °F 42 °F  
Max Temperature 48 °F 53 °F 72 °F (2014)
Min Temperature 19 °F 31 °F 19 °F (2013)
Degree Days  
Heating Degree Days 32 23  
Month to date heating degree days 46  
Since 1 July heating degree days 2087  
Moisture  
Dew Point 28 °F    
Average Humidity 82    
Maximum Humidity 100    
Minimum Humidity 31    
Precipitation  
Precipitation 0.24 in 0.19 in 2.38 in (1983)
Month to date precipitation 0.37  
Year to date precipitation 4.97  
Snow  
Snow 0.00 in - - ()
Month to date snowfall  
Since 1 July snowfall  
Snow Depth -    
Sea Level Pressure  
Sea Level Pressure 30.23 in    
Wind  
Wind Speed 1 mph (NE)    
Max Wind Speed 7 mph    
Max Gust Speed -    
Visibility 6 miles    
Events Fog , Rain    
T = Trace of Precipitation, MM = Missing Value Source: NWS Daily Summary

Daily Weather History Graph

Daily Weather History Graph

Search for Another Location

Airport:

Trip Planner

Search our weather history database for the weather conditions in past years. The results will help you decide how hot, cold, wet, or windy it might be!

Date:

Astronomy

Feb. 02, 2013 Rise Set
Actual Time 7:35 AM EST 6:11 PM EST
Civil Twilight 7:09 AM EST 6:37 PM EST
Nautical Twilight 6:39 AM EST 7:07 PM EST
Astronomical Twilight 6:10 AM EST 7:36 PM EST
Moon No Moon Rise 11:06 AM EST (2/2)
Length of Visible Light 11h 27m
Length of Day
10h 35m
Waning Gibbous, 60% of the Moon is Illuminated
Feb 2
Waning Gibbous
Feb 3
Last Quarter
Feb 10
New
Feb 17
First Quarter
Feb 25
Full

Hourly Weather History & Observations

Time (EST) Temp. Windchill Dew Point Humidity Pressure Visibility Wind Dir Wind Speed Gust Speed Precip Events Conditions
12:53 AM 21.9 °F - 18.0 °F 85% 30.38 in 9.0 mi Calm Calm - N/A   Clear
1:53 AM 21.9 °F - 18.0 °F 85% 30.37 in 10.0 mi Calm Calm - N/A   Clear
2:53 AM 21.9 °F - 19.0 °F 89% 30.36 in 10.0 mi Calm Calm - N/A   Clear
4:53 AM 19.9 °F - 17.1 °F 89% 30.35 in 10.0 mi Calm Calm - N/A   Clear
5:53 AM 19.9 °F - 17.1 °F 89% 30.34 in 10.0 mi Calm Calm - N/A   Clear
6:53 AM 19.9 °F - 17.1 °F 89% 30.36 in 10.0 mi Calm Calm - N/A   Clear
7:53 AM 21.9 °F - 19.0 °F 89% 30.36 in 10.0 mi Calm Calm - N/A   Clear
8:53 AM 28.0 °F 24.2 °F 19.0 °F 69% 30.34 in 10.0 mi ENE 3.5 mph - N/A   Clear
9:53 AM 34.0 °F 28.0 °F 15.1 °F 46% 30.32 in 10.0 mi ESE 6.9 mph - N/A   Clear
10:53 AM 39.9 °F 37.8 °F 16.0 °F 38% 30.33 in 10.0 mi NNE 3.5 mph - N/A   Clear
11:53 AM 42.1 °F 40.2 °F 15.1 °F 34% 30.33 in 10.0 mi North 3.5 mph - N/A   Overcast
12:53 PM 44.1 °F - 15.1 °F 31% 30.25 in 10.0 mi Calm Calm - N/A   Overcast
1:53 PM 44.1 °F 41.5 °F 17.1 °F 34% 30.19 in 10.0 mi Variable 4.6 mph - N/A   Overcast
2:53 PM 48.0 °F - 19.9 °F 33% 30.16 in 10.0 mi Calm Calm - N/A   Overcast
3:53 PM 46.9 °F - 28.9 °F 50% 30.14 in 10.0 mi Calm Calm - N/A   Overcast
4:48 PM 42.8 °F - 39.2 °F 87% 30.15 in 2.5 mi Calm Calm - 0.03 in Rain Rain
4:53 PM 43.0 °F 41.3 °F 39.0 °F 86% 30.16 in 3.0 mi Variable 3.5 mph - 0.03 in Rain Light Rain
5:37 PM 39.2 °F 35.9 °F 39.2 °F 100% 30.18 in 2.0 mi SSW 4.6 mph - 0.07 in Rain Rain
5:53 PM 39.9 °F - 39.0 °F 97% 30.18 in 2.5 mi Calm Calm - 0.11 in Rain Light Rain
6:02 PM 39.2 °F - 39.2 °F 100% 30.18 in 4.0 mi Calm Calm - 0.02 in Rain Light Rain
6:49 PM 39.2 °F 37.0 °F 39.2 °F 100% 30.16 in 6.0 mi Variable 3.5 mph - 0.09 in Rain Light Rain
6:53 PM 39.9 °F 36.7 °F 39.0 °F 97% 30.17 in 7.0 mi Variable 4.6 mph - 0.09 in Rain Light Rain
7:53 PM 39.9 °F - 37.9 °F 93% 30.15 in 10.0 mi Calm Calm - 0.00 in   Overcast
8:37 PM 35.6 °F - 35.6 °F 100% 30.15 in 2.5 mi Calm Calm - N/A   Scattered Clouds
8:53 PM 36.0 °F - 36.0 °F 100% 30.15 in 1.8 mi Calm Calm - N/A   Partly Cloudy
8:57 PM 35.6 °F - 35.6 °F 100% 30.15 in 3.0 mi Calm Calm - N/A   Partly Cloudy
9:53 PM 33.1 °F - 33.1 °F 100% 30.16 in 6.0 mi Calm Calm - N/A   Partly Cloudy
10:09 PM 33.8 °F - 33.8 °F 100% 30.16 in 5.0 mi Calm Calm - N/A   Mostly Cloudy
10:33 PM 35.6 °F - 35.6 °F 100% 30.17 in 2.5 mi Calm Calm - N/A   Overcast
10:46 PM 35.6 °F - 35.6 °F 100% 30.17 in 0.8 mi Calm Calm - N/A   Overcast
10:53 PM 35.1 °F - 35.1 °F 100% 30.17 in 0.2 mi Calm Calm - N/A Fog Fog
11:50 PM 32.0 °F - 32.0 °F 100% 30.16 in 0.5 mi Calm Calm - N/A Fog Fog
11:53 PM 33.1 °F - 33.1 °F 100% 30.16 in 0.5 mi Calm Calm - 0.01 in Fog Fog